Location: Poughquag
(41.6090°N, 73.6820°W)
Time: 23:43:17
(UTC-04:00)

Tiangong - Visible Passes

Search period start: 12 July 2024 00:00
Search period end: 22 July 2024 00:00
Orbit: 373 x 379 km, 41.5° (Epoch: 12 July)

Date Brightness Start Highest point End Pass type
(mag) Time Alt. Az. Time Alt. Az. Time Alt. Az.
12 Jul -1.0 04:26:02 16° SSW 04:27:53 29° SSE 04:30:39 10° E visible
13 Jul 0.0 03:26:25 17° SE 03:26:25 17° SE 03:27:52 10° ESE visible
14 Jul -1.6 03:58:43 33° SSW 03:59:33 42° SSE 04:02:31 10° E visible
15 Jul 0.3 02:58:57 16° ESE 02:58:57 16° ESE 02:59:48 10° E visible
15 Jul -2.3 04:30:58 14° WSW 04:33:32 78° S 04:36:39 10° E visible
16 Jul -2.0 03:31:07 57° SSE 03:31:07 57° SSE 03:34:00 10° E visible
17 Jul 0.9 02:31:15 10° E 02:31:15 10° E 02:31:15 10° E visible
17 Jul -2.3 04:03:16 26° W 04:04:50 88° S 04:07:57 10° E visible
18 Jul -0.7 03:03:23 31° E 03:03:23 31° E 03:05:10 10° E visible
18 Jul -2.3 04:35:35 10° W 04:38:42 83° S 04:41:48 10° E visible
19 Jul -2.3 03:35:32 70° W 03:35:51 89° ENE 03:38:58 10° E visible
20 Jul 0.8 02:35:45 12° E 02:35:45 12° E 02:36:02 10° E visible
20 Jul -2.3 04:07:47 23° W 04:09:31 70° SSW 04:12:37 10° ESE visible
21 Jul -0.4 03:08:11 25° E 03:08:11 25° E 03:09:39 10° E visible
21 Jul -1.5 04:40:13 10° W 04:43:01 34° SSW 04:45:52 10° SE visible
